User: anonymous   Login
Location: Unspecified
(0.0000°N, 0.0000°E)
Time: 19:38:30
(UTC+00:00)
Language:

Transit 2A - Orbit

View from above orbital plane
View from above orbital plane
View from above satellite
View from above satellite

Ground track
Ground track

The orbit data is extracted from the following two-line orbital elements,

1    45U 60007A   20196.30333364 -.00000064  00000-0  11385-4 0  9998
2    45  66.6955 310.1598 0262312 295.3633  62.0515 14.33681162126555
Epoch (UTC): 14 July 2020 07:16:48
Eccentricity: 0.0262312
inclination: 66.6955°
perigee height: 592 km
apogee height: 967 km
right ascension of ascending node: 310.1598°
argument of perigee: 295.3633°
revolutions per day: 14.33681162
mean anomaly at epoch: 62.0515°
orbit number at epoch: 12655

The dashed part of the orbit path shows where the satellite is in the earth's shadow,  

DLR